Lafayette, IN

1:55 AM EDT on September 01, 2016 (GMT -0400)
Purdue Univ

Weather History for KLAF - July, 2013

Change the Weather History Date:

Tuesday, July 23, 2013

  Actual Average Record
Temperature  
Mean Temperature 72 °F 74 °F  
Max Temperature 84 °F 85 °F 101 °F (1983)
Min Temperature 60 °F 64 °F 50 °F (1985)
Degree Days  
Heating Degree Days 0 0  
Month to date heating degree days 0 0  
Since 1 June heating degree days 18 22  
Since 1 July heating degree days 0 0  
Cooling Degree Days 7 9  
Month to date cooling degree days 216 227  
Year to date cooling degree days 495 521  
Since 1 June cooling degree days 394 444  
Growing Degree Days 23 (Base 50)    
Moisture  
Dew Point 65 °F    
Average Humidity 79    
Maximum Humidity 100    
Minimum Humidity 58    
Precipitation  
Precipitation 0.01 in 0.13 in 1.07 in (1957)
Month to date precipitation 2.43 3.10  
Year to date precipitation 25.32 21.22  
Sea Level Pressure  
Sea Level Pressure 29.80 in    
Wind  
Wind Speed 8 mph (NW)    
Max Wind Speed 20 mph    
Max Gust Speed 24 mph    
Visibility 10 miles    
Events Rain    
T = Trace of Precipitation, MM = Missing Value Source: NWS Daily Summary

Daily Weather History Graph

Daily Weather History Graph

Search for Another Location

Airport or City:

Trip Planner

Search our weather history database for the weather conditions in past years. The results will help you decide how hot, cold, wet, or windy it might be!

Date:

Astronomy

Jul. 23, 2013 Rise Set
Actual Time 6:37 AM EDT 9:10 PM EDT
Civil Twilight 6:05 AM EDT 9:42 PM EDT
Nautical Twilight 5:26 AM EDT 10:21 PM EDT
Astronomical Twilight 4:42 AM EDT 11:04 PM EDT
Moon 9:38 PM EDT (7/23) 7:45 AM EDT (7/23)
Length of Visible Light 15h 36m
Length of Day
14h 33m
Full, 99% of the Moon is Illuminated
Jul 23
Full
Jul 29
Last Quarter
Aug 6
New
Aug 14
First Quarter
Aug 20
Full

Hourly Weather History & Observations

Time (EDT) Temp. Heat Index Dew Point Humidity Pressure Visibility Wind Dir Wind Speed Gust Speed Precip Events Conditions
12:54 AM 70.0 °F - 69.1 °F 97% 29.83 in 6.0 mi Calm Calm - N/A   Clear
1:54 AM 70.0 °F - 69.1 °F 97% 29.82 in 9.0 mi Calm Calm - N/A   Clear
2:54 AM 70.0 °F - 68.0 °F 93% 29.79 in 10.0 mi Calm Calm - N/A   Clear
3:54 AM 72.0 °F - 66.9 °F 84% 29.79 in 10.0 mi Calm Calm - 0.00 in Rain Light Rain
4:54 AM 70.0 °F - 66.0 °F 87% 29.71 in 10.0 mi ESE 4.6 mph - 0.01 in   Partly Cloudy
5:54 AM 69.1 °F - 66.9 °F 93% 29.75 in 10.0 mi SW 4.6 mph - N/A   Clear
6:54 AM 66.9 °F - 66.0 °F 97% 29.77 in 8.0 mi WNW 3.5 mph - N/A   Clear
7:54 AM 70.0 °F - 66.9 °F 90% 29.76 in 10.0 mi West 4.6 mph - N/A   Clear
8:54 AM 73.0 °F - 66.9 °F 81% 29.77 in 10.0 mi WSW 4.6 mph - N/A   Scattered Clouds
9:54 AM 75.9 °F - 68.0 °F 76% 29.79 in 10.0 mi West 5.8 mph - N/A   Clear
10:54 AM 79.0 °F - 66.9 °F 66% 29.78 in 10.0 mi WNW 11.5 mph - N/A   Clear
11:54 AM 80.1 °F 82.3 °F 66.9 °F 64% 29.80 in 10.0 mi WNW 12.7 mph - N/A   Scattered Clouds
12:54 PM 81.0 °F 83.0 °F 66.0 °F 60% 29.80 in 10.0 mi West 12.7 mph - N/A   Partly Cloudy
1:54 PM 82.0 °F 84.5 °F 66.9 °F 60% 29.79 in 10.0 mi WNW 15.0 mph 24.2 mph N/A   Partly Cloudy
2:54 PM 82.9 °F 86.5 °F 69.1 °F 63% 29.77 in 10.0 mi West 12.7 mph 20.7 mph N/A   Mostly Cloudy
3:54 PM 82.0 °F 84.1 °F 66.0 °F 58% 29.76 in 10.0 mi WNW 13.8 mph 21.9 mph N/A   Mostly Cloudy
4:54 PM 82.9 °F 85.0 °F 66.0 °F 56% 29.77 in 10.0 mi NW 9.2 mph 17.3 mph N/A   Mostly Cloudy
5:54 PM 78.1 °F - 66.9 °F 68% 29.79 in 10.0 mi North 15.0 mph 23.0 mph N/A   Scattered Clouds
6:54 PM 73.9 °F - 63.0 °F 68% 29.80 in 10.0 mi North 9.2 mph 20.7 mph N/A   Clear
7:54 PM 72.0 °F - 61.0 °F 68% 29.82 in 10.0 mi North 12.7 mph 17.3 mph N/A   Clear
8:54 PM 69.1 °F - 57.9 °F 68% 29.84 in 10.0 mi North 11.5 mph 18.4 mph N/A   Clear
9:54 PM 66.0 °F - 57.9 °F 75% 29.88 in 10.0 mi North 9.2 mph - N/A   Clear
10:54 PM 64.0 °F - 55.9 °F 75% 29.91 in 10.0 mi North 5.8 mph - N/A   Clear
11:54 PM 62.1 °F - 55.0 °F 78% 29.94 in 10.0 mi North 8.1 mph - N/A   Clear